Location: Hylvaty SDH
(49.9612°N, 16.4057°E)
Time: 11:07:05
(UTC+01:00)

A-11 Canister half - Pass Details

Date: 10 October 2020
Orbit: 1526 x 1683 km, 47.3° (Epoch: 28 October)

Event Time Altitude Azimuth Distance (km) Brightness Sun altitude
Rises 20:41:33 0° 233° (SW) 4,684 12.0 -24.4°
Reaches altitude 10° 20:44:39 10° 229° (SW) 3,694 11.3 -24.9°
Maximum altitude 20:53:38 56° 154° (SSE) 1,766 9.0 -26.3°
Enters shadow 20:55:46 47° 113° (ESE) 1,933 9.0 -26.6°
Drops below altitude 10° 21:02:39 10° 80° (E) 3,720 - -27.6°
Sets 21:05:48 0° 76° (ENE) 4,719 - -28.1°
